Regional Weather Roundup
Issued by NWS

Home | Current Version | Previous Version | Graphics & Text | Print | Product List | Glossary On
Versions: 1 2 3 4 5 6 7 8 9 10 11 12 13 14 15 16 17 18 19 20 21 22 23 24 25 26 27 28 29 30 31 32 33 34 35 36 37 38 39 40 41 42 43 44 45 46 47 48 49 50
000
ASUS44 KMEG 271210
RWRTN
TENNESSEE HOURLY STATE WEATHER ROUNDUP
NATIONAL WEATHER SERVICE MEMPHIS TN
600 AM CST TUE JAN 27 2015

TNZ002-004-019-021-049-052-054-088>092-271300-
WEST TENNESSEE

CITY           SKY/WX    TMP DP  RH WIND       PRES   REMARKS
MEMPHIS INTL   CLEAR     40  33  76 W3        30.01R
NWS MEMPHIS      N/A     33 N/A N/A MISG        N/A
JACKSON        CLEAR     32  28  85 N3        29.98R
DYERSBURG      CLEAR     36  21  55 CALM      30.02R
UNION CITY     PTCLDY    32  30  93 NW7       29.99R WCI  26
PARIS          CLEAR     30  28  93 NW5       29.96R WCI  25
LEXINGTON      CLOUDY    36  30  80 NW9       29.94R WCI  29
SAVANNAH       CLEAR     27  27 100 CALM      29.97R
$$

TNZ008-025-027-028-033-062-065-066-271300-
NORTH MIDDLE TENNESSEE

CITY           SKY/WX    TMP DP  RH WIND       PRES   REMARKS
NASHVILLE      CLOUDY    33  30  88 NW3       29.94R
CLARKSVILLE    PTCLDY    31  29  92 W6        29.95R WCI  25
SMYRNA         MOCLDY    31  30  96 CALM      29.95R
COOKEVILLE     MOCLDY    32  32 100 CALM      29.89R
CROSSVILLE     CLOUDY    31  28  89 W8        29.87R FOG     WCI  23
$$

TNZ061-075-076-078-094-096-097-271300-
SOUTH MIDDLE TENNESSEE

CITY           SKY/WX    TMP DP  RH WIND       PRES   REMARKS
FAYETTEVILLE   PTCLDY    36  30  80 MISG      29.91R
TULLAHOMA      MOCLDY    30  28  93 CALM      29.90R
WINCHESTER     MOCLDY    34  30  86 CALM      29.91R
MCMINNVILLE    CLOUDY    34  34 100 CALM      29.90R
COLUMBIA       PTCLDY   N/A N/A N/A W3        29.92R
SHELBYVILLE    MOCLDY    32  30  93 CALM      29.92R
$$

TNZ017-018-042-046-047-271300-
NORTHEAST TENNESSEE

CITY           SKY/WX    TMP DP  RH WIND       PRES   REMARKS
TRI CITIES     CLOUDY    29  23  78 W5        29.86R WCI  24
ELIZABETHTON   CLOUDY    27  21  80 W5        29.84R WCI  21
$$

TNZ012-013-036-069-073-074-271300-
CENTRAL EAST TENNESSEE

CITY           SKY/WX    TMP DP  RH WIND       PRES   REMARKS
KNOXVILLE      LGT SNOW  31  30  96 SW5       29.89S FOG     WCI  26
OAK RIDGE      LGT SNOW  32  30  92 CALM      29.91R FOG
GATLINBURG     CLOUDY    30  27  86 CALM      29.89R
MORRISTOWN     PTSUNNY   30  30 100 W6        29.87R WCI  24
$$

TNZ083-085-099-271300-
SOUTHEAST TENNESSEE

CITY           SKY/WX    TMP DP  RH WIND       PRES   REMARKS
CHATTANOOGA    DRIZZLE   35  31  85 CALM      29.91R
$$

SKY/WX REPORTED AS FAIR MEANS FEW OR NO CLOUDS BELOW
12 THOUSAND FEET.




USA.gov is the U.S. government's official web portal to all federal, state and local government web resources and services.